Flag for U.S.A. Weather past 2 weeks in Freehold, New Jersey, U.S.A.

Now
57 °F

Sunny.


Feels Like: 54 °F
Forecast: 33 / 59 °F
Wind: 13 mph from Northwest

Location: Belmar-Farmdale

Current Time: Apr 25, 2015 at 4:17:24 PM

Latest Report: Apr 25, 2015 at 3:35 PM


Visibility: 10 mi

Pressure: 29.76 "Hg

Humidity: 29%

Dew point: 25 °F

Location of FreeholdLocation

Historic Weather in Freehold — Graph

°F

Freehold temperature yesterday

Maximum temperature yesterday: 54 °F (at 3:55 PM)
Minimum temperature yesterday: 37 °F (at 1:15 AM)
Average temperature yesterday: 43 °F

Past Weeks' High & Low Weather Summary

 TemperatureHumidityPressure
High77 °F (Apr 18, 1:55 PM)88% (Apr 20, 11:15 AM)30.49 "Hg (Apr 20, 11:15 AM)
Low34 °F (Apr 25, 4:15 AM)15% (Apr 15, 5:55 PM)29.55 "Hg (Apr 21, 1:55 AM)
Average55 °F52%30.01 "Hg
* Reported Apr 10 3:15 PM — Apr 25 3:15 PM, Freehold, Weather by CustomWeather, © 2015

Note: Actual official high and low records may vary slightly from our data, if they occured in-between our weather recording intervals... More about our weather records

Advertising

Freehold weather history for previous 24 hours

 ConditionsComfort  
Time TempWeatherWind HumidityBarometerVisibility
3:15 PM
Sat, Apr 25
55 °FSunny.7 mph31%29.77 "Hg10 mi
2:55 PM55 °FSunny.8 mph33%29.78 "Hg10 mi
2:35 PM55 °FSunny.8 mph33%29.79 "Hg10 mi
2:15 PM55 °FSunny.8 mph31%29.81 "Hg10 mi
1:55 PM54 °FSunny.9 mph33%29.82 "Hg10 mi
1:35 PM54 °FSunny.14 mph33%29.82 "Hg10 mi
1:15 PM54 °FSunny.10 mph33%29.83 "Hg10 mi
12:55 PM54 °FSunny.13 mph33%29.83 "Hg10 mi
12:35 PM52 °FSunny.12 mph35%29.85 "Hg10 mi
12:15 PM52 °FSunny.13 mph35%29.85 "Hg10 mi
11:55 AM52 °FSunny.12 mph35%29.87 "Hg10 mi
11:35 AM50 °FSunny.13 mph37%29.88 "Hg10 mi
11:15 AM48 °FSunny.13 mph40%29.88 "Hg10 mi
10:55 AM46 °FSunny.14 mph37%29.88 "Hg10 mi
10:35 AM46 °FSunny.12 mph37%29.89 "Hg10 mi
10:15 AM46 °FSunny.15 mph37%29.89 "Hg10 mi
9:55 AM46 °FSunny.16 mph37%29.90 "Hg10 mi
9:35 AM45 °FSunny.12 mph39%29.90 "Hg10 mi
9:15 AM45 °FSunny.13 mph39%29.90 "Hg10 mi
8:55 AM43 °FSunny.14 mph42%29.90 "Hg10 mi
8:35 AM43 °FSunny.13 mph42%29.92 "Hg10 mi
8:15 AM41 °FSunny.10 mph45%29.92 "Hg10 mi
7:55 AM39 °FSunny.7 mph48%29.92 "Hg10 mi
7:35 AM37 °FSunny.8 mph48%29.94 "Hg10 mi
7:15 AM36 °FSunny.7 mph52%29.94 "Hg10 mi
6:55 AM36 °FClear.No wind52%29.94 "Hg10 mi
6:35 AM34 °FClear.6 mph51%29.94 "Hg10 mi
6:15 AM34 °FClear.6 mph51%29.93 "Hg10 mi
5:55 AM34 °FClear.5 mph56%29.93 "Hg10 mi
5:35 AM34 °FClear.3 mph56%29.93 "Hg10 mi
5:15 AM34 °FClear.3 mph51%29.93 "Hg10 mi
4:55 AM34 °FClear.6 mph51%29.93 "Hg10 mi
4:35 AM34 °FClear.6 mph51%29.93 "Hg10 mi
4:15 AM34 °FClear.6 mph51%29.93 "Hg10 mi
3:55 AM36 °FClear.6 mph52%29.93 "Hg10 mi
3:35 AM36 °FClear.6 mph48%29.93 "Hg10 mi
3:15 AM36 °FClear.6 mph48%29.93 "Hg10 mi
2:55 AM36 °FClear.3 mph48%29.93 "Hg10 mi
2:35 AM36 °FClear.No wind48%29.94 "Hg10 mi
2:15 AM36 °FClear.5 mph48%29.94 "Hg10 mi
1:55 AM36 °FClear.5 mph48%29.94 "Hg10 mi
1:35 AM37 °FClear.5 mph45%29.93 "Hg10 mi
1:15 AM37 °FClear.3 mph45%29.94 "Hg10 mi
12:55 AM37 °FClear.5 mph45%29.94 "Hg10 mi
12:35 AM39 °FClear.6 mph42%29.94 "Hg10 mi
11:35 PM
Fri, Apr 24
39 °FClear.10 mph42%29.94 "Hg10 mi
11:15 PM41 °FClear.14 mph39%29.94 "Hg10 mi
10:55 PM41 °FClear.13 mph39%29.93 "Hg10 mi
10:35 PM41 °FClear.10 mph42%29.93 "Hg10 mi
10:15 PM43 °FClear.10 mph39%29.93 "Hg10 mi
9:55 PM43 °FClear.9 mph39%29.92 "Hg10 mi
8:55 PM45 °FClear.12 mph37%29.91 "Hg10 mi
8:35 PM45 °FSunny.14 mph37%29.90 "Hg10 mi
7:35 PM48 °FSunny.14 mph32%29.87 "Hg10 mi
7:15 PM48 °FSunny.12 mph32%29.85 "Hg10 mi
6:55 PM52 °FSunny.13 mph26%29.84 "Hg10 mi
6:35 PM54 °FScattered clouds.12 mph22%29.84 "Hg10 mi
6:15 PM54 °FScattered clouds.16 mph24%29.83 "Hg10 mi
5:35 PM54 °FScattered clouds.17 mph24%29.84 "Hg10 mi
5:15 PM54 °FPartly sunny.15 mph24%29.84 "Hg10 mi
4:55 PM54 °FOvercast.16 mph26%29.83 "Hg10 mi
4:35 PM54 °FPartly sunny.17 mph24%29.83 "Hg10 mi
4:15 PM54 °FScattered clouds.22 mph26%29.83 "Hg10 mi
Weather by CustomWeather, © 2015

See weather overviewHow to use our weather pages